Other Public Products
Issued by NWS Charleston, SC

Current Version | Previous Version | Graphics & Text | Print | Product List | Glossary On
Versions: 1 2 3 4 5 6 7 8 9 10 11 12 13 14 15 16 17 18 19 20 21 22 23 24 25 26 27 28 29 30 31 32 33 34 35 36 37 38 39 40 41 42 43 44 45 46 47 48 49 50
000
FPUS82 KCHS 271712
OPUCHS

TEST...KCHS/KSAV Gateway Observations...TEST
National Weather Service Charleston SC
1200 PM EST MON FEB 27 2017

NOTE: "fair" indicates few or no clouds below 12,000 feet with no
significant weather and/or obstructions to visibility.

SCZ050-WAZ558-NCZ071-TXZ119-213-PAZ071-DCZ001-FLZ074-172-MI076-
NYZ176-178-MAZ016-IL014-TNZ027-NJZ106-GAZ044-MD014-271800-
...Gateway Observations for Charleston International...

CITY           SKY/WX    TMP DP  RH WIND       PRES   REMARKS
Chas Airport   MOSUNNY   71  48  43 E9G20     30.36F
Seattle        CLOUDY    36  35  96 S10       29.72F WCI  28
Charlotte      PTSUNNY   60  32  34 S12       30.40F
Dallas DFW     CLOUDY    74  64  71 S20G29    29.94F
Dallas Love    PTSUNNY   74  63  68 S16G22    29.96S
Philladelphia  PTSUNNY   51  29  42 SW13      30.43F
Wash National  CLOUDY    53  23  31 S13       30.43F
Baltimore      CLOUDY    51  29  42 SW8       30.41F
Miami          PTSUNNY   81  66  60 SE17      30.23F
Detroit        MOSUNNY   47  28  47 VRB3      30.24F
Newark         CLOUDY    52  24  33 SW13      30.41F
Laguardia      CLOUDY    51  22  31 SW10      30.41S
J F K          PTSUNNY   50  27  40 SW14      30.44S
Boston Logan   PTSUNNY   50  20  30 SW14G24   30.32F
Ft. Lauderdale MOSUNNY   81  67  62 SE20G25   30.23F
Chicago O`Hare SUNNY     47  32  56 S7        30.14F
Chicago Midway MOSUNNY   46  32  58 S9G18     30.16F
Houston Bush   PTSUNNY   79  67  66 S7        30.02S
Houston Hobby  PTSUNNY   77  68  73 S12       30.02S
Nashville      MOSUNNY   58  38  47 S20G28    30.24R
Atlanta        LGT RAIN  55  33  43 N9        30.34R

$$

GAZ044-118-TXZ119-213-NCZ071-DCZ001-MDZ014-506-PAZ021-071-NJZ106-
NYZ176-178-MAZ106-OHZ011-021-055-MIZ076-KYZ091-ILZ014-INZ047-
MNZ060-ONZ431-271800-
...Gateway Observations for Savannah International...

CITY           SKY/WX    TMP DP  RH WIND       PRES   REMARKS
Savannah Arpt  PTSUNNY   73  52  47 SE16G24   30.34S
Atlanta        LGT RAIN  55  33  43 N9        30.34R
Charlotte      PTSUNNY   60  32  34 S12       30.40F
Dallas DFW     CLOUDY    74  64  71 S20G29    29.94F
Houston Bush   PTSUNNY   79  67  66 S7        30.02S
Wash National  CLOUDY    53  23  31 S13       30.43F
Wash Dulles    CLOUDY    51  21  30 S13       30.41F
Baltimore      CLOUDY    51  29  42 SW8       30.41F
Philadelphia   PTSUNNY   51  29  42 SW13      30.43F
Newark         CLOUDY    52  24  33 SW13      30.41F
Laguardia      CLOUDY    51  22  31 SW10      30.41S
J F K          PTSUNNY   50  27  40 SW14      30.44S
Boston         PTSUNNY   50  20  30 SW14G24   30.32F
Pittsburg      CLOUDY    45  26  47 SW10      30.30S
Akron          CLOUDY    44  22  41 SW12      30.28S
Cleveland      CLOUDY    48  27  44 SW15      30.29S
Cincinnati     LGT RAIN  43  41  93 SE12      30.25S
Columbus       LGT RAIN  41  41  98 S10       30.30S
Detroit        MOSUNNY   47  28  47 VRB3      30.24F
Chicago O`Hare SUNNY     47  32  56 S7        30.14F
Minneapolis    PTSUNNY   41  19  41 SW15      29.99R
Indianapolis   PTSUNNY   50  36  58 SE9       30.19F
Toronto Canada MOSUNNY   46  28  49 W14G22    30.21R

$$




USA.gov is the U.S. government's official web portal to all federal, state and local government web resources and services.